[[{"header":{"parameterUnit":"m.s-1","parameterCategory":1,"la1":30.2991,"la2":30.254,"lo1":-89.0895,"lo2":-89.0444,"dy":0.0017,"dx":0.0017,"nx":28,"ny":28,"refTime":"2024-08-18T21:00:00:Z","depth":0,"parameterNumber":2,"parameterNumberName":"U-component_of_WINDS"},"data":[0,0,0,0,0,0,0,0,0,0,0,0,0,0,0,0,0,0,0,0,0,0,0,0,0,0,0,0,0,0,0,0,0,0,0,0,0,0,0,0,0,0,0,0,0,0,0,0,0,0,0,0,0,0,0,0,0,0,4.1814,4.1815,0,4.197,4.1972,4.1974,4.1924,4.192,4.1917,4.1914,4.2079,4.2087,4.2094,0,0,0,0,0,0,0,0,0,0,0,0,0,4.1478,4.1484,4.1814,4.1816,4.1817,4.197,4.1972,4.1974,4.1924,4.192,4.1916,4.1912,4.2077,4.2086,4.2095,0,0,0,0,0,0,0,0,0,0,0,0,0,4.1628,4.1486,4.1813,4.1811,4.1812,4.1969,4.1972,4.1975,4.1925,4.192,4.1915,4.1911,4.2074,4.2085,4.2096,4.2266,0,0,4.2131,4.2135,0,0,0,0,0,0,0,0,4.162,4.1641,4.1809,4.1811,4.1813,4.1922,4.1914,4.2073,4.1927,4.1883,4.1914,4.1908,4.2031,4.2046,4.2086,4.2274,4.2281,4.2132,4.2138,4.2143,4.2146,0,0,0,0,0,0,0,4.1609,4.1634,4.1876,4.1812,4.1814,4.1804,4.182,4.1944,4.1984,4.1886,4.1883,4.1902,4.2032,4.2076,4.209,4.2283,4.2131,4.2141,4.2148,4.2153,4.262,4.2625,0,0,0,0,0,0,4.1597,4.1625,4.1871,4.188,4.1702,4.1814,4.1832,4.1892,4.1982,4.1991,4.1906,4.1899,4.2059,4.2077,4.2096,4.23,4.2143,4.2154,4.216,4.2614,4.2621,4.2627,0,0,0,0,0,0,4.159,4.1619,4.1864,4.1752,4.1782,4.1825,4.1894,4.1898,4.1942,4.1997,4.2004,4.1943,4.2056,4.208,4.2224,4.2305,4.2159,4.2169,4.2607,4.2616,4.2624,4.2712,0,0,0,0,0,0,4.158,4.1617,4.1681,4.1754,4.1788,4.1988,4.1899,4.1905,4.1961,4.1953,4.2034,4.2042,4.2054,4.2207,4.2235,4.2318,4.2178,4.26,4.2611,4.2621,4.2702,4.2722,4.274,0,0,0,0,0,4.1569,4.17,4.1684,4.1714,4.1868,4.1993,4.2013,4.2022,4.1968,4.2033,4.2068,4.204,4.2293,4.2223,4.2253,4.2341,4.2595,4.2608,4.262,4.2693,4.2718,4.2739,0,0,0,0,0,0,4.1637,4.1709,4.1692,4.1851,4.1916,4.1984,4.2066,4.2048,4.2131,4.212,4.2129,4.2148,4.2296,4.2334,4.2254,4.2511,4.2436,4.2456,4.2481,4.2505,4.2524,4.2511,4.2187,0,0,0,0,0,4.167,4.1763,4.1823,4.1957,4.1991,4.2023,4.2078,4.2079,4.2147,4.2175,4.2221,4.229,4.2385,4.2447,4.2538,4.2708,4.2725,4.2784,4.2803,4.2818,4.2834,4.2927,4.2954,4.2669,4.2668,4.2668,0,0,4.174,4.1791,4.185,4.1972,4.2022,4.2121,4.2047,4.2154,4.2227,4.2192,4.233,4.2367,4.2445,4.2602,4.2674,4.2638,4.2917,4.2834,4.2846,4.2854,4.2943,4.297,4.2994,4.2677,4.2676,4.2674,0,0,4.1917,4.1965,4.2082,4.2134,4.2212,4.2233,4.2261,4.2333,4.2355,4.2494,4.247,4.2559,4.2722,4.2779,4.2829,4.303,4.3007,4.3059,4.3158,4.3248,4.3271,4.3291,4.3362,4.3387,4.3076,4.3076,4.3076,0,4.1994,4.2139,4.2145,4.2254,4.2309,4.2281,4.2401,4.2452,4.2556,4.2595,4.2553,4.2758,4.2808,4.2979,4.3028,4.307,4.3103,4.3049,4.3267,4.3287,4.3306,4.3374,4.34,4.3082,4.3081,4.3081,4.308,0,4.223,4.2332,4.2418,4.2516,4.2582,4.2696,4.2721,4.2786,4.2783,4.2809,4.2952,4.3012,4.3114,4.3155,4.3153,4.3326,4.3301,4.3263,4.3188,4.3338,4.3402,4.3429,4.309,4.3088,4.3086,4.3085,0,0,4.2452,4.2554,4.2585,4.263,4.2714,4.2794,4.2908,4.3006,4.3062,4.3136,4.3232,4.3371,4.3337,4.3394,4.3399,4.3478,4.3633,4.3431,4.3433,4.3465,4.3828,4.3855,4.3885,4.362,4.3625,4.3629,4.3821,0,4.2635,4.2832,4.2842,4.3023,4.3117,4.3093,4.3193,4.3256,4.3285,4.337,4.3403,4.3501,4.3448,4.3483,4.3561,4.3598,4.3706,4.3585,4.371,4.3714,4.3689,4.3918,4.3947,4.4125,4.3846,4.385,4.3854,0,4.2874,4.2953,4.3142,4.3214,4.3254,4.3343,4.3434,4.3516,4.3589,4.3604,4.3669,4.3662,4.3781,4.3703,4.3867,4.3784,4.3836,4.3863,4.387,4.3881,4.3791,4.3934,4.4182,4.4208,4.3893,4.389,4.3887,0,4.3015,4.317,4.3303,4.3343,4.343,4.3493,4.3532,4.36,4.3659,4.374,4.3778,4.3873,4.3925,4.4,4.402,4.3961,4.4184,4.4107,4.42,4.42,4.4246,4.4243,4.4505,4.4283,4.4283,4.4282,4.4282,0,4.3217,4.3334,4.3368,4.3449,4.358,4.3592,4.3721,4.3757,4.3818,4.3908,4.3895,4.3979,4.4002,4.4091,4.4109,4.4242,4.4266,4.4282,4.4285,4.4282,4.428,4.4315,4.4303,4.429,4.4288,4.4287,4.4285,0,4.3396,4.3423,4.3567,4.3638,4.3659,4.3752,4.3813,4.3893,4.392,4.4034,4.4062,4.4105,4.421,4.4238,4.4365,4.4376,4.4533,4.4525,4.4508,4.4507,4.4598,4.4589,4.4891,4.4931,4.4684,4.4687,4.4688,0,4.3522,4.3611,4.3692,4.375,4.3792,4.3887,4.3946,4.3963,4.4026,4.4117,4.4186,4.4289,4.4372,4.4541,4.4585,4.4682,4.4676,4.4775,4.469,4.4685,4.4676,4.467,4.4679,4.4791,4.4793,4.4796,4.4797,0,4.3743,4.3752,4.3838,4.393,4.4002,4.4075,4.4145,4.4195,4.4222,4.4294,4.44,4.4465,4.4593,4.4696,4.4794,4.4837,4.4823,4.4824,4.4851,4.4848,4.4833,4.4841,4.455,4.4817,4.4815,4.4813,4.4812,4.4811,4.3898,4.3976,4.4045,4.4142,4.4197,4.4263,4.4341,4.4379,4.4467,4.4572,4.4577,4.4693,4.4766,4.4895,4.4944,4.5036,4.5006,4.5045,4.5054,4.5063,4.507,4.482,4.5054,4.5054,4.5053,4.5053,4.5053,0,4.4117,4.416,4.425,4.4348,4.4425,4.4404,4.4481,4.4547,4.4649,4.4717,4.4799,4.4922,4.5022,4.5075,4.5175,4.5239,4.5234,4.5264,4.5259,4.5269,4.5092,4.5058,4.5266,4.5266,4.5266,4.5266,4.5266,4.5266,4.4239,4.437,4.4388,4.4547,4.4591,4.4702,4.4748,4.481,4.4865,4.5002,4.5085,4.5118,4.5181,4.5286,4.5377,4.5391,4.5428,4.5461,4.547,4.5303,4.5281,4.5261,4.5229,4.5469,4.5469,4.564,4.5641,4.5642]},{"header":{"parameterUnit":"m.s-1","parameterCategory":1,"la1":30.2991,"la2":30.254,"lo1":-89.0895,"lo2":-89.0444,"dy":0.0017,"dx":0.0017,"nx":28,"ny":28,"refTime":"2024-08-18T21:00:00:Z","depth":0,"parameterNumber":3,"parameterNumberName":"V-component_of_WINDS"},"data":[0,0,0,0,0,0,0,0,0,0,0,0,0,0,0,0,0,0,0,0,0,0,0,0,0,0,0,0,0,0,0,0,0,0,0,0,0,0,0,0,0,0,0,0,0,0,0,0,0,0,0,0,0,0,0,0,0,0,3.1975,3.1977,0,3.2244,3.2247,3.225,3.228,3.2277,3.2274,3.2272,3.2552,3.2561,3.2571,0,0,0,0,0,0,0,0,0,0,0,0,0,3.149,3.1499,3.1974,3.1978,3.1981,3.2243,3.2247,3.2251,3.228,3.2277,3.2274,3.227,3.2548,3.256,3.2572,0,0,0,0,0,0,0,0,0,0,0,0,0,3.1724,3.1502,3.1974,3.2027,3.2035,3.2242,3.2247,3.2252,3.2281,3.2277,3.2273,3.2269,3.2544,3.2559,3.2574,3.2748,0,0,3.2619,3.2626,0,0,0,0,0,0,0,0,3.1711,3.1742,3.2016,3.2024,3.2033,3.2224,3.2179,3.2418,3.2282,3.2188,3.2272,3.2267,3.2446,3.2469,3.2528,3.2761,3.2773,3.2621,3.263,3.2636,3.264,0,0,0,0,0,0,0,3.1695,3.173,3.2081,3.202,3.203,3.2039,3.2068,3.2224,3.2337,3.2195,3.2198,3.2229,3.245,3.2514,3.2535,3.2777,3.262,3.2634,3.2643,3.2649,3.3167,3.3172,0,0,0,0,0,0,3.1668,3.1717,3.2072,3.2089,3.1858,3.2051,3.2083,3.2167,3.2335,3.2357,3.2233,3.223,3.249,3.2518,3.2545,3.2761,3.2636,3.265,3.2659,3.3163,3.3168,3.3174,0,0,0,0,0,0,3.1657,3.1699,3.2062,3.1904,3.1951,3.2064,3.2157,3.2174,3.2238,3.2363,3.2384,3.2277,3.2488,3.2524,3.2697,3.2771,3.2657,3.2671,3.3157,3.3164,3.3171,3.3194,0,0,0,0,0,0,3.1643,3.1695,3.1761,3.1905,3.1959,3.2208,3.2162,3.2182,3.2263,3.2262,3.241,3.2431,3.2488,3.2675,3.2712,3.279,3.2682,3.3151,3.316,3.3169,3.3187,3.3201,3.3213,0,0,0,0,0,3.1626,3.1758,3.1765,3.1807,3.2044,3.2212,3.2243,3.2305,3.2269,3.2338,3.2418,3.2426,3.2757,3.2692,3.2735,3.2818,3.3147,3.3158,3.3168,3.3181,3.3198,3.3213,0,0,0,0,0,0,3.1622,3.1778,3.1787,3.1969,3.2077,3.2217,3.2305,3.232,3.2442,3.2436,3.2508,3.2541,3.2712,3.2782,3.2707,3.2996,3.2948,3.2968,3.2944,3.2961,3.2974,3.2954,3.2695,0,0,0,0,0,3.1641,3.1763,3.1894,3.2042,3.2096,3.2191,3.2266,3.2304,3.242,3.2466,3.2559,3.2671,3.2801,3.2885,3.3011,3.3197,3.3231,3.3275,3.3288,3.3298,3.3315,3.342,3.3442,3.3209,3.3209,3.3209,0,0,3.1685,3.1785,3.1858,3.2044,3.2132,3.2258,3.2229,3.2364,3.2459,3.2487,3.2656,3.2728,3.2859,3.3039,3.3124,3.3103,3.3386,3.3312,3.3319,3.3331,3.3433,3.3455,3.3475,3.3216,3.3215,3.3214,0,0,3.1828,3.1915,3.2049,3.2137,3.2271,3.2333,3.2365,3.2503,3.2552,3.2722,3.2746,3.2861,3.3082,3.3174,3.325,3.3428,3.3441,3.3467,3.3535,3.3637,3.3655,3.3672,3.3737,3.3759,3.3483,3.3483,3.3483,0,3.1865,3.2055,3.2116,3.225,3.2332,3.2361,3.2498,3.2582,3.275,3.2806,3.2781,3.3059,3.3149,3.3352,3.3396,3.3456,3.3496,3.3451,3.3647,3.3665,3.3681,3.3744,3.3768,3.3486,3.3486,3.3485,3.3485,0,3.2095,3.2226,3.2318,3.2478,3.2571,3.2705,3.2788,3.2875,3.2904,3.297,3.3144,3.3253,3.3402,3.3453,3.3484,3.3661,3.3644,3.3632,3.3586,3.3705,3.3765,3.379,3.3489,3.3488,3.3488,3.3487,0,0,3.2243,3.2435,3.2468,3.2542,3.2691,3.2795,3.2931,3.3076,3.3149,3.3264,3.3382,3.3568,3.3558,3.3644,3.3686,3.3774,3.391,3.3752,3.3756,3.3779,3.4114,3.4123,3.415,3.3919,3.3924,3.3928,3.4104,0,3.2404,3.2647,3.2706,3.2915,3.3038,3.3068,3.3188,3.3293,3.3358,3.3473,3.3545,3.3677,3.3652,3.3705,3.3794,3.3875,3.3979,3.3863,3.4031,3.4036,3.3998,3.4182,3.4192,3.4353,3.4128,3.4132,3.4135,0,3.2625,3.2744,3.2964,3.3098,3.3152,3.3258,3.3396,3.3505,3.3625,3.3666,3.3762,3.3795,3.3941,3.3886,3.4088,3.4007,3.4079,3.413,3.4137,3.4157,3.4093,3.4207,3.4405,3.443,3.4172,3.4169,3.4166,0,3.2713,3.2928,3.3088,3.315,3.331,3.3384,3.3454,3.357,3.3654,3.3774,3.3829,3.3966,3.4041,3.4146,3.4215,3.4169,3.4412,3.4363,3.4452,3.445,3.4503,3.4499,3.4717,3.4547,3.4547,3.4546,3.4546,0,3.2887,3.3021,3.3129,3.3228,3.338,3.3447,3.3595,3.3666,3.377,3.3884,3.3918,3.4025,3.4109,3.4228,3.4283,3.4443,3.4476,3.4515,3.4528,3.4513,3.4508,3.4562,3.4553,3.4553,3.4551,3.455,3.4549,0,3.3011,3.3089,3.3265,3.3402,3.344,3.3545,3.3663,3.3761,3.3826,3.3971,3.4008,3.4112,3.4254,3.4333,3.4511,3.4548,3.4726,3.4733,3.4685,3.4691,3.4776,3.4768,3.5038,3.5078,3.488,3.4881,3.4883,0,3.3118,3.3222,3.3369,3.3448,3.3519,3.3645,3.373,3.38,3.3887,3.4033,3.4113,3.4256,3.4375,3.46,3.4692,3.4829,3.484,3.4925,3.4861,3.4843,3.4843,3.4837,3.4848,3.4937,3.4939,3.494,3.4941,0,3.33,3.3333,3.3454,3.3588,3.3688,3.3798,3.3907,3.3969,3.4058,3.4155,3.4299,3.4391,3.4572,3.4715,3.4859,3.4933,3.4953,3.4961,3.4989,3.4975,3.4943,3.4963,3.4717,3.4954,3.4953,3.4952,3.4951,3.4951,3.342,3.3514,3.3633,3.3766,3.3855,3.3956,3.4055,3.4132,3.4254,3.4406,3.4441,3.4593,3.4713,3.4908,3.4986,3.5107,3.5092,3.5132,3.5143,3.5152,3.5156,3.4922,3.5134,3.5133,3.5133,3.5133,3.5133,0,3.3605,3.3682,3.3804,3.3955,3.4061,3.4068,3.4189,3.4278,3.4411,3.452,3.4635,3.4802,3.494,3.5043,3.5185,3.5262,3.5275,3.5298,3.5293,3.531,3.5161,3.5123,3.5285,3.5285,3.5285,3.5285,3.5285,3.5285,3.3713,3.3873,3.392,3.4125,3.4203,3.4352,3.442,3.4514,3.4602,3.4786,3.4901,3.4966,3.5073,3.5223,3.5351,3.5378,3.5429,3.545,3.5479,3.5337,3.5321,3.5305,3.527,3.546,3.5461,3.5619,3.562,3.5621]}]]